Theta_e
319 316 317 318 318 316 316 318 319 319 321 321 322 322 321 321 322 324 324 325 325 325
317 314 313 314 314 313 312 316 314 314 314 315 315 315 315 315 316 317 318 320 322 323
315 314 312 312 312 312 312 313 313 313 313 313 314 312 311 310 312 312 313 315 314 315
310 310 312 310 311 309 309 309 310 310 310 310 309 308 306 307 309 308 308 307 307 308
307 307 306 307 308 307 306 306 306 306 306 307 306 305 304 305 305 305 302 302 302 303
304 305 304 304 304 304 304 303 303 303 303 304 304 304 303 303 304 301 301 301 301 301
303 302 301 301 302 302 302 301 301 301 302 302 302 302 302 302 300 299 300 300 300 300
302 301 301 300 300 301 301 300 300 300 300 300 301 302 300 300 299 298 299 299 299 300
300 300 299 299 299 299 298 297 298 298 298 298 300 301 302 303 300 299 298 297 298 299
298 298 298 299 298 297 297 296 297 297 297 298 298 299 299 301 300 299 298 298 298 299
297 297 297 296 296 296 296 296 296 297 297 297 300 300 298 299 300 299 299 299 299 299
295 297 299 296 295 295 295 296 296 297 298 299 300 300 298 299 302 301 300 301 302 302
298 299 297 295 294 298 299 301 302 299 300 301 302 301 299 299 302 301 302 303 304 302
298 298 295 296 299 300 301 301 300 299 302 304 304 305 299 298 302 303 302 302 302 303
Wind_Speed
8 7 6 9 7 7 5 5 6 5 5 4 2 5 4 3 4 4 4 5 4 4
7 7 6 6 7 5 3 3 6 6 7 7 6 6 6 4 5 5 4 5 6 5
7 4 7 4 7 6 4 6 7 8 8 7 9 9 8 6 5 6 5 5 6 5
4 6 6 2 5 5 6 6 8 8 8 9 9 7 7 7 7 7 6 7 8 8
5 6 5 7 7 7 8 6 6 5 6 5 5 5 6 5 5 3 5 4 5 8
6 5 6 6 6 7 7 6 7 6 5 4 4 4 5 5 6 5 5 6 6 9
6 6 6 5 6 6 6 7 7 6 6 6 7 8 8 7 5 7 8 7 7 10
6 5 6 6 6 6 6 7 6 6 6 6 6 6 6 7 7 8 9 10 10 11
7 6 6 6 6 5 5 5 5 6 6 7 6 11 14 15 10 10 11 11 12 12
6 6 6 6 6 6 6 5 6 7 7 8 9 13 15 18 10 8 10 12 12 12
6 5 4 5 5 5 4 6 6 8 8 8 9 14 15 18 11 9 12 12 14 13
8 6 6 6 7 6 5 6 5 6 8 10 12 16 16 14 10 10 11 12 13 14
7 7 6 6 7 5 6 8 8 10 9 13 12 13 15 12 8 9 9 11 11 12
7 7 6 8 7 7 8 8 8 9 9 10 10 12 13 13 8 8 9 9 9 9
Wind_Direction
42 68 43 58 53 44 41 13 34 59 62 62 40 34 18 20 5 342 325 309 279 271
46 86 59 73 86 49 10 17 37 35 36 22 26 25 12 342 338 338 318 296 291 280
27 266 81 60 76 87 34 16 29 29 35 26 23 18 8 2 349 348 337 317 297 286
247 48 60 51 67 86 83 66 48 34 31 24 20 11 10 359 1 349 0 1 352 341
33 48 41 39 52 49 55 61 71 60 50 30 3 349 351 338 328 355 330 316 321 316
33 59 68 59 52 44 46 38 31 29 21 4 334 319 305 293 296 303 285 281 295 303
49 47 45 40 41 40 30 23 10 357 343 334 324 317 311 295 294 281 286 279 279 281
31 35 33 27 30 27 19 3 335 325 312 305 299 290 282 278 266 266 269 262 264 266
22 22 16 17 13 2 349 320 314 296 283 283 281 268 268 276 273 266 262 262 260 253
0 360 6 347 348 348 327 307 293 284 272 274 272 272 269 268 265 262 263 264 265 266
338 335 335 340 335 316 284 288 286 292 286 283 290 281 282 282 281 269 265 264 264 262
322 331 338 331 323 306 301 303 285 288 299 309 308 297 283 281 281 275 281 278 270 265
319 331 323 319 307 290 300 311 323 317 311 297 292 300 296 295 294 290 294 292 288 269
339 335 337 318 317 314 319 322 318 307 304 312 305 304 299 301 316 306 308 305 299 291